Date String (YYYY-MM-DD hh:mm:ss) UTC,Instrument flags,Ambient pressure (hPa),Sample flow (lpm),Bypass flow (lpm),Sample temperature (°C),Ambient temperature (°C),ASC tube jacket temperature (°C),LED temperature (°C),Box temperature (°C),Sample RH (%),Span deviation,Mass concentration (μg/m³),Mass concentration (μg/m³),Mass concentration (μg/m³)
DateTimeUTC,F1_M11,P_M11,Q1_M11,Q2_M11,T1_M11,T2_M11,T3_M11,T4_M11,T5_M11,U1_M11,ZSPAN_M11,X0_M11,X2_M11,X1_M11
2022-09-24 00:00:00,,0826.2,5.01,0.00,30.0,28.4,00.0,38.7,31.9,09.6,0000.0,0004.88,0002.08,0001.50
2022-09-24 00:01:00,,0826.2,5.00,0.00,30.0,28.6,00.0,38.7,31.9,08.8,0000.0,0004.55,0001.99,0001.50
2022-09-24 00:02:00,,0826.2,4.99,0.00,30.0,28.7,00.0,38.7,32.0,09.2,0000.0,0004.45,0001.95,0001.49
2022-09-24 00:03:00,,0826.2,5.00,0.00,30.1,28.8,00.0,38.7,32.0,09.5,0000.0,0004.53,0001.95,0001.48
2022-09-24 00:04:00,,0826.2,4.98,0.00,30.1,29.0,00.0,38.7,32.1,09.0,0000.0,0004.60,0001.97,0001.48
2022-09-24 00:05:00,,0826.2,4.99,0.00,30.1,29.1,00.0,38.8,32.1,09.4,0000.0,0004.60,0001.99,0001.48
2022-09-24 00:06:00,,0826.2,4.99,0.00,30.2,29.2,00.0,38.8,32.2,09.2,0000.0,0004.60,0001.99,0001.48
2022-09-24 00:07:00,,0826.3,5.00,0.00,30.2,29.2,00.0,38.8,32.2,09.4,0000.0,0005.20,0001.94,0001.48
2022-09-24 00:08:00,,0826.2,5.00,0.00,30.2,28.5,00.0,38.8,32.2,09.3,0000.0,0004.30,0001.95,0001.49
2022-09-24 00:09:00,,0826.3,4.99,0.00,30.2,27.1,00.0,38.8,32.0,09.4,0000.0,0004.35,0001.96,0001.49
2022-09-24 00:10:00,,0826.3,5.01,0.00,30.1,26.6,00.0,38.7,31.9,09.6,0000.0,0004.33,0001.96,0001.48
2022-09-24 00:11:00,,0826.4,4.99,0.00,30.1,26.8,00.0,38.7,31.8,09.7,0000.0,0004.28,0002.00,0001.50
2022-09-24 00:12:00,,0826.4,5.00,0.00,30.0,27.0,00.0,38.7,31.7,09.7,0000.0,0004.35,0002.03,0001.51
2022-09-24 00:13:00,,0826.4,4.99,0.00,29.9,27.4,00.0,38.7,31.7,09.8,0000.0,0004.43,0002.08,0001.52
2022-09-24 00:14:00,,0826.4,5.00,0.00,29.9,27.7,00.0,38.7,31.8,09.9,0000.0,0004.36,0002.06,0001.53
2022-09-24 00:15:00,,0826.5,5.01,0.00,29.9,28.0,00.0,38.6,31.8,09.8,0000.0,0004.31,0002.05,0001.53
2022-09-24 00:16:00,,0826.5,5.00,0.00,29.9,28.3,00.0,38.7,31.8,09.8,0000.0,0004.33,0002.05,0001.53
2022-09-24 00:17:00,,0826.4,4.99,0.00,30.0,28.4,00.0,38.7,31.9,09.0,0000.0,0004.31,0002.03,0001.52
2022-09-24 00:18:00,,0826.4,5.02,0.00,30.0,28.6,00.0,38.7,31.9,09.0,0000.0,0003.76,0002.06,0001.53
2022-09-24 00:19:00,,0826.5,5.00,0.00,30.0,28.7,00.0,38.7,32.0,09.4,0000.0,0003.48,0002.09,0001.52
2022-09-24 00:20:00,,0826.5,4.99,0.00,30.0,28.9,00.0,38.7,32.0,09.6,0000.0,0004.27,0002.08,0001.52
2022-09-24 00:21:00,,0826.5,5.00,0.00,30.1,29.0,00.0,38.7,32.1,09.6,0000.0,0004.07,0002.06,0001.53
2022-09-24 00:22:00,,0826.5,5.01,0.00,30.1,29.1,00.0,38.7,32.1,09.5,0000.0,0004.08,0002.04,0001.52
2022-09-24 00:23:00,,0826.5,5.00,0.00,30.2,29.2,00.0,38.8,32.1,09.3,0000.0,0004.26,0002.09,0001.50
2022-09-24 00:24:00,,0826.5,5.00,0.00,30.2,29.2,00.0,38.8,32.2,09.5,0000.0,0004.27,0002.11,0001.50
2022-09-24 00:25:00,,0826.5,4.99,0.00,30.2,29.3,00.0,38.8,32.2,09.5,0000.0,0004.13,0002.07,0001.49
2022-09-24 00:26:00,,0826.5,5.01,0.00,30.3,28.7,00.0,38.8,32.2,09.6,0000.0,0004.17,0002.05,0001.48
2022-09-24 00:27:00,,0826.5,5.00,0.00,30.2,27.4,00.0,38.8,32.1,09.6,0000.0,0004.27,0002.09,0001.49
2022-09-24 00:28:00,,0826.5,5.01,0.00,30.2,27.3,00.0,38.8,32.0,09.9,0000.0,0004.35,0002.12,0001.50
2022-09-24 00:29:00,,0826.5,5.01,0.00,30.1,27.4,00.0,38.8,31.9,09.8,0000.0,0004.35,0002.14,0001.51
2022-09-24 00:30:00,,0826.5,4.99,0.00,30.1,27.7,00.0,38.8,31.9,10.0,0000.0,0004.29,0002.12,0001.52
2022-09-24 00:31:00,,0826.5,5.01,0.00,30.1,28.0,00.0,38.8,31.9,10.2,0000.0,0003.46,0002.13,0001.53
2022-09-24 00:32:00,,0826.6,5.00,0.00,30.1,28.3,00.0,38.8,32.0,10.2,0000.0,0003.80,0002.16,0001.53
2022-09-24 00:33:00,,0826.6,5.00,0.00,30.1,28.5,00.0,38.8,32.0,10.1,0000.0,0004.65,0002.19,0001.52
2022-09-24 00:34:00,,0826.6,5.00,0.00,30.1,28.7,00.0,38.8,32.0,09.8,0000.0,0004.54,0002.17,0001.53
2022-09-24 00:35:00,,0826.6,5.00,0.00,30.1,28.8,00.0,38.8,32.1,09.6,0000.0,0004.59,0002.16,0001.54
2022-09-24 00:36:00,,0826.7,5.00,0.00,30.2,28.9,00.0,38.8,32.1,09.8,0000.0,0004.64,0002.19,0001.55
2022-09-24 00:37:00,,0826.7,5.00,0.00,30.2,29.0,00.0,38.9,32.2,09.5,0000.0,0004.67,0002.18,0001.55
2022-09-24 00:38:00,,0826.7,4.99,0.00,30.2,29.1,00.0,38.9,32.2,09.5,0000.0,0004.56,0002.14,0001.55
2022-09-24 00:39:00,,0826.7,5.01,0.00,30.3,29.0,00.0,38.9,32.2,09.6,0000.0,0004.50,0002.09,0001.54
2022-09-24 00:40:00,,0826.6,5.00,0.00,30.2,27.5,00.0,38.8,32.1,09.6,0000.0,0004.91,0002.04,0001.52
2022-09-24 00:41:00,,0826.6,5.01,0.00,30.2,26.4,00.0,38.8,31.9,09.6,0000.0,0006.23,0002.03,0001.51
2022-09-24 00:42:00,,0826.7,5.01,0.00,30.1,26.4,00.0,38.7,31.8,09.7,0000.0,0006.17,0002.01,0001.50
2022-09-24 00:43:00,,0826.7,5.01,0.00,30.0,26.7,00.0,38.7,31.6,09.8,0000.0,0006.31,0002.01,0001.50
2022-09-24 00:44:00,,0826.6,5.00,0.00,29.9,27.1,00.0,38.7,31.7,09.6,0000.0,0005.67,0001.95,0001.49
2022-09-24 00:45:00,,0826.7,4.99,0.00,29.9,27.4,00.0,38.7,31.7,09.5,0000.0,0005.87,0001.90,0001.48
2022-09-24 00:46:00,,0826.7,5.01,0.00,29.9,27.7,00.0,38.7,31.7,09.5,0000.0,0005.76,0001.86,0001.47
2022-09-24 00:47:00,,0826.7,5.00,0.00,29.9,28.0,00.0,38.7,31.7,09.8,0000.0,0005.93,0001.91,0001.45
2022-09-24 00:48:00,,0826.7,5.00,0.00,29.9,28.2,00.0,38.7,31.8,09.5,0000.0,0006.03,0001.95,0001.43
2022-09-24 00:49:00,,0826.7,5.00,0.00,29.9,28.4,00.0,38.7,31.9,09.2,0000.0,0006.08,0001.93,0001.42
2022-09-24 00:50:00,,0826.7,5.01,0.00,30.0,28.6,00.0,38.7,31.9,09.5,0000.0,0006.03,0001.92,0001.40
2022-09-24 00:51:00,,0826.7,5.00,0.00,30.0,28.7,00.0,38.7,31.9,09.5,0000.0,0005.90,0001.97,0001.39
2022-09-24 00:52:00,,0826.7,4.99,0.00,30.0,28.8,00.0,38.7,32.0,09.6,0000.0,0004.39,0001.99,0001.38
2022-09-24 00:53:00,,0826.7,5.00,0.00,30.0,28.9,00.0,38.7,32.0,09.8,0000.0,0004.62,0001.97,0001.38
2022-09-24 00:54:00,,0826.7,5.01,0.00,30.1,29.0,00.0,38.7,32.1,09.7,0000.0,0004.66,0002.00,0001.38
2022-09-24 00:55:00,,0826.8,4.99,0.00,30.1,29.0,00.0,38.8,32.1,09.6,0000.0,0004.88,0002.02,0001.39
2022-09-24 00:56:00,,0826.7,5.01,0.00,30.1,29.1,00.0,38.8,32.1,09.4,0000.0,0005.20,0002.07,0001.40
2022-09-24 00:57:00,,0826.7,4.99,0.00,30.2,29.2,00.0,38.8,32.2,09.4,0000.0,0005.21,0002.10,0001.40
2022-09-24 00:58:00,,0826.7,5.00,0.00,30.2,29.2,00.0,38.8,32.2,09.3,0000.0,0005.41,0002.10,0001.41
2022-09-24 00:59:00,,0826.7,5.01,0.00,30.2,28.7,00.0,38.8,32.2,09.3,0000.0,0005.38,0002.09,0001.42
